Tracking 33747 objects as of 11-Apr-2026
HD Live streaming from Space Station
objects crossing your sky now

STARLINK-5013

Track STARLINK-5013 now!
10-day predictions
STARLINK-5013 is classified as:


NORAD ID: 55492
Int'l Code: 2023-015AV
Perigee: 489.4 km
Apogee: 491.0 km
Inclination: 43.0 °
Period: 94.3 minutes
Semi major axis: 6861 km
RCS: Unknown
Launch date: February 2, 2023
Source: United States (US)
Launch site: AIR FORCE EASTERN TEST RANGE (AFETR)
Your satellite tracking list
Your tracking list is empty




NASA's NSSDC Master Catalog

Two Line Element Set (TLE):
1 55492U 23015AV  26101.18096525 -.00000078  00000-0  67056-5 0  9997
2 55492  43.0001 156.2856 0001224 267.3660  92.7051 15.27574507175568
Source of the keplerian elements: AFSPC